Temp
71 71 71 71 71 72 74 75 74 74 75 74 74 74 74 74 74 74 74 74 73 71 71 71 72 72 74 72 73 74 74 74 73 73 73 73 73 73 73 73 72 72 73 73 72 72 72 72 72 72 72 71 69 65 65 65 66 67 67 68 69 71
71 71 71 71 71 72 73 73 71 72 72 73 74 74 73 72 74 72 74 72 70 72 70 70 71 73 71 73 73 74 74 74 74 73 73 73 73 73 73 72 72 72 72 73 73 70 71 72 72 71 70 69 65 64 65 65 65 66 66 68 69 72
72 72 72 72 71 72 71 70 70 70 72 73 73 73 71 72 69 70 70 70 70 69 69 70 70 72 72 73 73 74 74 74 73 73 73 73 72 72 72 71 71 71 71 70 68 67 67 68 70 71 69 66 64 64 65 65 65 65 66 69 69 73
72 72 71 71 71 71 70 70 69 70 70 70 70 71 70 70 69 69 69 70 70 69 69 69 73 74 73 71 72 73 74 74 74 73 73 72 73 72 71 70 70 69 68 67 66 67 66 65 65 64 64 64 65 64 65 65 66 66 67 69 70 73
72 71 71 71 70 70 70 70 69 69 69 69 69 68 68 68 69 69 69 70 70 70 68 68 69 69 67 68 68 68 68 67 67 67 68 66 67 67 66 65 65 65 65 66 66 65 65 65 65 65 64 64 65 64 65 65 66 66 66 67 70 73
71 71 71 71 71 71 71 70 69 69 69 69 69 68 68 67 68 69 69 70 70 68 67 68 67 67 67 67 67 66 66 66 66 66 67 65 65 65 65 65 65 65 65 65 65 65 66 65 64 64 65 64 65 64 65 65 66 66 66 68 71 72
70 70 71 72 72 71 70 71 70 70 69 69 69 67 67 68 68 69 69 69 69 68 67 67 67 66 66 66 66 65 66 66 66 66 66 65 65 65 65 65 65 64 64 65 65 65 64 64 65 65 64 64 65 65 65 65 66 66 66 67 71 72
70 70 70 71 71 70 71 70 70 70 70 69 69 68 68 69 69 68 68 68 69 68 68 67 67 66 66 66 65 65 66 68 68 67 66 66 65 65 65 65 64 64 65 65 65 64 64 64 63 65 64 64 64 64 65 65 65 65 66 67 69 72
70 70 70 70 70 70 70 69 69 69 68 70 68 68 69 68 68 68 68 68 68 67 68 67 66 66 66 66 65 65 67 67 67 66 66 65 65 65 65 65 64 64 64 64 64 64 64 64 64 64 65 65 65 64 64 65 65 65 65 66 67 71
69 70 70 70 70 69 69 68 68 68 68 70 68 68 69 67 68 68 68 67 68 67 68 67 67 66 66 65 65 65 66 66 66 66 64 64 64 65 64 64 63 64 64 64 64 65 64 64 64 64 65 65 64 65 64 64 65 65 65 66 66 70
69 70 69 69 69 69 69 68 68 68 69 69 68 68 68 68 67 68 68 67 67 67 67 68 67 66 67 65 65 65 65 65 64 63 63 63 64 64 65 65 64 63 63 63 64 64 64 64 64 64 65 65 64 65 64 64 65 65 66 65 65 67
68 69 69 69 68 68 68 68 68 68 68 69 68 68 68 68 68 68 67 67 67 67 67 67 66 66 66 65 64 64 64 63 64 63 64 63 64 64 64 64 64 64 64 64 63 63 64 64 64 64 65 65 65 64 64 64 65 64 64 65 65 66
67 68 68 68 68 68 68 68 68 68 69 68 68 68 67 68 68 68 67 67 67 67 67 66 66 66 67 65 65 64 64 64 64 64 64 64 64 64 65 64 63 64 63 64 63 63 64 64 63 64 65 64 65 64 64 64 64 64 64 64 65 65
67 67 67 67 68 67 68 68 68 68 68 68 68 68 68 68 69 69 68 67 67 67 67 67 67 66 67 65 65 64 64 64 64 64 64 64 64 64 64 64 63 64 65 64 63 63 63 63 63 63 64 64 64 64 64 64 63 64 63 64 63 64
66 65 67 67 67 67 67 68 68 67 67 68 68 67 68 68 68 68 68 67 67 67 67 67 67 67 66 65 65 64 64 64 64 64 64 64 64 64 64 63 64 63 62 62 63 63 63 63 63 63 63 64 64 64 64 63 63 64 63 63 64 63
66 65 66 66 66 67 67 67 67 68 66 67 67 67 67 68 68 68 68 67 67 67 67 67 67 67 66 66 65 65 65 64 65 64 64 64 64 64 63 63 64 64 62 62 63 62 63 63 63 63 63 63 63 63 63 63 63 63 63 63 63 63
64 65 66 66 66 66 66 66 66 67 66 67 67 67 67 68 68 68 68 67 67 68 67 67 67 66 66 65 65 65 65 65 65 65 64 64 64 64 64 63 63 64 64 62 62 62 63 63 63 63 63 63 63 63 62 63 63 63 63 63 62 62
64 65 65 66 66 65 65 66 66 66 67 66 66 67 67 68 67 67 67 67 67 68 67 67 66 66 65 66 65 65 64 65 65 65 64 64 64 64 64 64 62 62 63 62 62 62 62 63 64 63 62 62 62 62 62 63 64 64 63 63 62 62
65 64 64 65 66 65 65 65 65 66 66 66 66 66 67 67 67 67 66 67 68 68 67 66 66 66 65 65 64 64 64 64 65 64 64 64 64 64 64 63 63 62 62 63 63 63 63 64 63 63 62 62 62 63 63 63 64 63 63 63 64 64
65 65 65 65 65 65 65 64 64 64 65 65 66 66 66 67 67 66 67 66 65 65 66 66 66 66 65 65 64 64 64 64 64 64 64 63 63 63 63 62 62 62 62 63 64 64 65 64 63 62 61 61 62 63 63 62 63 63 63 63 64 63
65 65 65 64 64 64 63 63 64 64 64 65 65 66 66 66 67 66 66 66 66 65 65 66 66 65 65 66 64 64 64 63 64 64 64 63 64 64 64 63 63 63 62 61 62 64 64 65 62 60 61 61 61 62 63 63 62 62 62 63 63 63
65 65 65 65 65 65 65 65 64 64 64 65 65 65 65 66 66 66 66 66 66 66 65 65 66 65 65 65 64 64 64 64 63 63 64 64 64 65 64 63 63 61 63 62 61 64 64 64 60 60 58 58 60 61 62 61 62 62 62 62 63 63
65 65 65 66 65 65 65 66 65 65 65 64 66 66 66 67 67 66 65 65 65 65 65 65 65 65 65 65 64 64 64 64 64 64 64 63 63 63 63 63 63 63 61 63 63 64 64 64 60 62 62 60 57 57 59 61 62 62 62 62 62 63
65 66 65 66 66 65 66 65 66 65 65 65 64 66 66 66 66 65 64 65 65 65 65 65 65 65 65 65 64 64 64 64 64 64 64 63 63 63 63 63 63 63 63 61 61 61 64 61 64 62 57 57 57 58 55 57 59 61 62 63 63 63
65 65 66 66 65 65 65 64 64 64 64 64 64 64 64 64 65 64 64 63 64 65 65 65 65 65 65 65 64 64 64 64 64 64 65 64 63 64 64 64 64 63 63 63 61 62 62 62 64 65 62 58 56 56 56 57 59 59 62 62 63 64
65 65 65 66 66 65 64 64 63 62 62 62 61 62 62 62 63 63 63 64 64 65 65 65 65 65 65 65 64 64 64 64 63 64 64 64 65 64 64 64 64 64 63 64 63 62 60 62 64 63 62 61 63 59 57 59 60 54 60 61 61 63
64 65 66 66 66 65 64 64 63 63 63 61 61 62 64 65 64 64 64 64 64 65 66 65 65 65 64 64 64 64 64 64 64 63 64 63 63 64 64 64 65 64 64 64 64 61 61 61 62 61 62 60 60 59 63 60 56 57 55 60 61 61
64 65 66 66 65 65 64 64 64 63 62 61 61 60 62 63 64 65 64 64 63 63 64 65 64 64 65 64 64 64 63 64 64 64 64 63 63 64 65 65 64 65 64 64 64 63 61 62 60 61 61 59 59 58 63 61 63 60 58 56 57 60
63 64 65 66 65 65 65 65 62 61 61 61 62 61 62 63 63 63 63 62 63 63 63 64 65 64 64 65 64 63 63 63 63 64 64 63 63 64 64 64 63 63 63 63 64 63 62 61 61 61 59 57 58 60 60 59 62 60 59 57 56 58
62 63 65 65 65 65 65 64 61 61 61 61 61 60 61 62 62 62 62 62 62 62 62 63 63 64 64 64 64 64 63 63 63 63 64 64 64 63 64 64 64 64 64 63 63 63 63 62 63 62 62 59 58 58 60 60 59 59 59 60 57 58
61 62 63 64 65 65 64 62 61 61 61 61 61 61 60 60 61 61 61 62 61 62 62 62 63 63 63 63 63 64 63 63 64 64 64 64 64 63 64 65 65 65 64 63 62 62 62 62 63 62 61 62 61 61 60 59 59 60 60 57 57 57
60 61 61 61 61 61 62 62 62 61 61 61 61 60 60 60 61 61 61 61 62 62 62 62 62 62 62 63 63 63 63 63 63 63 64 64 64 64 65 65 64 64 64 64 64 63 62 61 62 61 61 61 62 62 62 62 62 62 61 59 60 58
60 61 60 61 61 60 61 61 61 61 61 61 61 61 61 60 61 62 62 62 62 61 62 61 61 62 62 63 63 62 62 62 62 63 63 64 64 65 63 63 64 64 64 63 63 63 62 62 62 62 62 61 62 62 63 62 62 62 60 60 60 57
60 60 60 60 60 60 60 61 61 61 61 61 61 61 61 61 62 62 63 62 62 61 61 61 61 62 63 63 63 63 63 63 63 63 63 64 64 64 63 63 63 63 63 64 63 63 63 63 62 63 63 61 61 62 62 61 63 61 59 59 58 59
59 60 60 59 59 60 61 61 61 61 61 61 61 61 61 62 62 62 62 62 62 62 62 62 61 62 63 63 63 63 63 63 63 63 63 63 63 62 63 63 63 63 63 63 63 63 63 62 62 62 62 62 62 61 61 61 62 62 63 63 62 60
58 60 60 60 60 60 60 60 61 61 61 61 61 62 61 61 62 62 62 62 62 62 62 62 62 62 62 63 62 62 63 63 63 63 63 63 62 63 63 62 62 62 62 63 63 63 63 62 63 62 62 62 62 62 61 61 63 63 63 63 63 62
57 58 60 61 61 60 60 60 60 60 61 61 60 61 61 62 62 63 63 62 62 62 63 62 62 62 62 63 62 62 62 62 63 62 62 63 63 63 63 63 63 62 62 63 63 62 61 61 62 61 61 62 63 62 61 61 62 62 62 61 63 63
MSLP
1015.56 1015.64 1015.72 1015.84 1016.00 1016.08 1016.16 1016.28 1016.48 1016.56 1016.68 1016.84 1016.96 1017.08 1017.24 1017.32 1017.40 1017.48 1017.56 1017.72 1017.84 1018.04 1018.20 1018.36 1018.48 1018.60 1018.76 1018.92 1018.96 1019.00 1019.08 1019.20 1019.36 1019.48 1019.52 1019.56 1019.64 1019.68 1019.80 1019.92 1020.04 1020.08 1020.16 1020.32 1020.48 1020.64 1020.76 1020.92 1021.08 1021.20 1021.32 1021.52 1021.68 1021.80 1021.84 1021.80 1021.80 1021.80 1021.84 1021.84 1021.88 1021.88
1015.60 1015.72 1015.76 1015.92 1016.04 1016.08 1016.16 1016.28 1016.52 1016.68 1016.80 1016.92 1017.04 1017.20 1017.36 1017.48 1017.56 1017.68 1017.72 1017.88 1018.04 1018.12 1018.32 1018.52 1018.60 1018.72 1018.88 1018.96 1019.08 1019.16 1019.20 1019.36 1019.48 1019.60 1019.68 1019.72 1019.76 1019.80 1019.92 1020.08 1020.20 1020.24 1020.32 1020.48 1020.60 1020.80 1020.96 1021.12 1021.28 1021.40 1021.56 1021.72 1021.88 1021.96 1021.96 1021.96 1021.96 1022.00 1022.04 1022.04 1021.96 1021.92
1015.60 1015.68 1015.80 1015.96 1016.08 1016.12 1016.20 1016.32 1016.52 1016.68 1016.84 1017.00 1017.16 1017.32 1017.52 1017.64 1017.80 1017.88 1018.00 1018.08 1018.16 1018.32 1018.44 1018.60 1018.72 1018.84 1018.96 1019.08 1019.20 1019.28 1019.36 1019.48 1019.60 1019.72 1019.80 1019.84 1019.88 1019.96 1020.04 1020.20 1020.32 1020.40 1020.48 1020.64 1020.84 1021.04 1021.20 1021.36 1021.52 1021.60 1021.72 1021.92 1022.08 1022.12 1022.12 1022.16 1022.16 1022.16 1022.16 1022.08 1022.08 1022.08
1015.48 1015.56 1015.72 1015.88 1016.04 1016.16 1016.28 1016.44 1016.60 1016.76 1016.96 1017.12 1017.28 1017.44 1017.56 1017.72 1017.88 1018.04 1018.20 1018.24 1018.32 1018.40 1018.52 1018.64 1018.68 1018.80 1018.96 1019.12 1019.24 1019.36 1019.48 1019.60 1019.68 1019.80 1019.96 1020.00 1020.00 1020.12 1020.24 1020.36 1020.48 1020.56 1020.68 1020.88 1021.08 1021.24 1021.40 1021.64 1021.84 1021.96 1022.04 1022.16 1022.24 1022.28 1022.28 1022.28 1022.32 1022.32 1022.28 1022.20 1022.20 1022.08
1015.28 1015.44 1015.64 1015.84 1016.04 1016.20 1016.32 1016.56 1016.76 1016.92 1017.08 1017.24 1017.44 1017.56 1017.68 1017.96 1017.96 1018.08 1018.24 1018.36 1018.40 1018.44 1018.56 1018.68 1018.84 1019.00 1019.16 1019.28 1019.40 1019.52 1019.64 1019.84 1019.88 1020.08 1020.20 1020.32 1020.36 1020.48 1020.52 1020.68 1020.76 1020.84 1020.96 1021.04 1021.24 1021.40 1021.52 1021.80 1022.04 1022.16 1022.24 1022.32 1022.40 1022.40 1022.44 1022.44 1022.48 1022.48 1022.48 1022.40 1022.28 1022.20
1015.24 1015.44 1015.60 1015.76 1016.00 1016.12 1016.28 1016.60 1016.80 1016.88 1017.04 1017.24 1017.44 1017.56 1017.68 1017.96 1017.92 1018.08 1018.20 1018.32 1018.40 1018.52 1018.64 1018.72 1018.84 1019.08 1019.20 1019.32 1019.52 1019.68 1019.76 1019.88 1020.08 1020.28 1020.36 1020.52 1020.60 1020.64 1020.76 1020.84 1020.92 1021.08 1021.16 1021.24 1021.36 1021.48 1021.60 1021.76 1022.08 1022.32 1022.40 1022.48 1022.52 1022.56 1022.56 1022.60 1022.64 1022.68 1022.60 1022.52 1022.44 1022.44
1015.12 1015.28 1015.44 1015.60 1015.76 1016.00 1016.28 1016.40 1016.52 1016.68 1016.92 1017.12 1017.20 1017.48 1017.56 1017.64 1017.80 1018.00 1018.16 1018.24 1018.44 1018.56 1018.68 1018.72 1018.84 1019.00 1019.20 1019.28 1019.52 1019.68 1019.84 1019.92 1020.20 1020.40 1020.48 1020.64 1020.72 1020.80 1020.84 1020.96 1021.08 1021.24 1021.32 1021.40 1021.56 1021.64 1021.72 1021.92 1022.08 1022.32 1022.52 1022.60 1022.64 1022.68 1022.68 1022.72 1022.76 1022.80 1022.80 1022.72 1022.60 1022.60
1014.88 1015.04 1015.20 1015.36 1015.56 1015.84 1016.00 1016.16 1016.28 1016.40 1016.56 1016.60 1016.72 1017.00 1017.20 1017.32 1017.52 1017.80 1018.00 1018.20 1018.32 1018.48 1018.60 1018.68 1018.80 1018.92 1019.12 1019.28 1019.48 1019.68 1019.84 1019.92 1020.20 1020.48 1020.56 1020.68 1020.80 1020.92 1021.00 1021.08 1021.20 1021.36 1021.44 1021.52 1021.68 1021.84 1021.92 1022.04 1022.24 1022.32 1022.56 1022.72 1022.80 1022.84 1022.84 1022.84 1022.88 1022.92 1022.92 1022.84 1022.76 1022.72
1014.72 1014.84 1014.96 1015.08 1015.40 1015.52 1015.68 1015.92 1016.12 1016.28 1016.48 1016.64 1016.92 1016.92 1017.04 1017.16 1017.36 1017.60 1017.84 1018.08 1018.32 1018.56 1018.72 1018.76 1018.80 1018.88 1019.04 1019.28 1019.44 1019.64 1019.76 1019.96 1020.20 1020.56 1020.64 1020.80 1020.88 1021.00 1021.12 1021.16 1021.32 1021.44 1021.52 1021.64 1021.76 1021.96 1022.04 1022.16 1022.28 1022.44 1022.56 1022.80 1022.92 1022.96 1022.96 1022.96 1023.04 1023.08 1023.08 1023.00 1022.96 1022.88
1014.44 1014.56 1014.76 1014.96 1015.16 1015.36 1015.52 1015.84 1015.96 1016.08 1016.24 1016.40 1016.80 1016.92 1017.04 1017.24 1017.32 1017.48 1017.76 1017.96 1018.08 1018.28 1018.48 1018.64 1018.68 1018.76 1019.08 1019.28 1019.44 1019.60 1019.76 1019.96 1020.20 1020.48 1020.68 1020.84 1020.96 1021.00 1021.12 1021.24 1021.36 1021.52 1021.60 1021.72 1021.84 1021.96 1022.04 1022.28 1022.40 1022.52 1022.64 1022.80 1022.96 1023.00 1023.00 1023.08 1023.20 1023.24 1023.20 1023.16 1023.16 1023.08
1014.16 1014.40 1014.60 1014.84 1014.96 1015.16 1015.28 1015.52 1015.84 1016.00 1016.12 1016.32 1016.60 1016.80 1016.92 1017.08 1017.28 1017.40 1017.64 1017.88 1018.08 1018.28 1018.44 1018.60 1018.60 1018.72 1019.00 1019.24 1019.48 1019.68 1019.80 1019.92 1020.16 1020.32 1020.52 1020.80 1020.92 1021.00 1021.04 1021.12 1021.28 1021.48 1021.64 1021.76 1021.92 1021.96 1022.08 1022.32 1022.52 1022.64 1022.72 1022.84 1023.00 1023.04 1023.08 1023.16 1023.28 1023.36 1023.32 1023.36 1023.36 1023.28
1014.36 1014.44 1014.52 1014.64 1014.76 1015.04 1015.24 1015.52 1015.76 1015.88 1015.96 1016.08 1016.44 1016.88 1017.08 1017.12 1017.24 1017.40 1017.56 1017.84 1018.12 1018.32 1018.40 1018.52 1018.64 1018.80 1018.88 1019.20 1019.52 1019.68 1019.76 1019.92 1020.04 1020.16 1020.32 1020.64 1020.92 1021.04 1021.12 1021.24 1021.36 1021.44 1021.60 1021.76 1022.00 1022.12 1022.20 1022.36 1022.60 1022.72 1022.80 1022.96 1023.00 1023.12 1023.20 1023.24 1023.36 1023.44 1023.48 1023.56 1023.52 1023.48
1014.48 1014.60 1014.56 1014.64 1014.84 1015.12 1015.36 1015.52 1015.68 1015.80 1015.84 1015.96 1016.20 1016.56 1016.96 1017.16 1017.24 1017.36 1017.56 1017.72 1017.92 1018.04 1018.20 1018.40 1018.68 1018.80 1018.88 1019.12 1019.36 1019.64 1019.80 1019.88 1019.96 1020.12 1020.24 1020.44 1020.80 1021.04 1021.24 1021.44 1021.60 1021.60 1021.76 1021.88 1022.08 1022.32 1022.40 1022.52 1022.68 1022.80 1022.88 1023.00 1023.08 1023.20 1023.24 1023.28 1023.44 1023.52 1023.64 1023.68 1023.68 1023.68
1014.52 1014.64 1014.88 1015.08 1015.20 1015.40 1015.48 1015.56 1015.64 1015.72 1015.76 1015.88 1016.16 1016.52 1016.84 1017.08 1017.20 1017.32 1017.44 1017.52 1017.60 1017.72 1018.00 1018.20 1018.48 1018.80 1018.88 1019.16 1019.36 1019.52 1019.72 1019.88 1019.96 1020.08 1020.28 1020.40 1020.64 1020.92 1021.24 1021.52 1021.76 1021.80 1021.92 1022.00 1022.24 1022.36 1022.52 1022.76 1022.88 1022.88 1023.00 1023.04 1023.16 1023.28 1023.28 1023.40 1023.52 1023.60 1023.72 1023.80 1023.84 1023.80
1014.56 1015.00 1015.12 1015.24 1015.36 1015.48 1015.56 1015.60 1015.68 1015.76 1015.84 1015.88 1016.08 1016.40 1016.64 1016.88 1017.12 1017.32 1017.48 1017.60 1017.56 1017.64 1017.80 1018.04 1018.32 1018.60 1018.92 1019.12 1019.32 1019.44 1019.56 1019.68 1019.80 1019.96 1020.24 1020.40 1020.60 1020.84 1021.04 1021.44 1021.64 1021.88 1022.04 1022.16 1022.28 1022.44 1022.60 1022.80 1022.92 1023.04 1023.12 1023.16 1023.32 1023.36 1023.40 1023.52 1023.60 1023.68 1023.80 1023.88 1023.88 1023.96
1014.64 1015.04 1015.16 1015.32 1015.48 1015.56 1015.60 1015.60 1015.64 1015.72 1015.88 1016.00 1016.12 1016.32 1016.52 1016.68 1016.96 1017.28 1017.60 1017.76 1017.72 1017.68 1017.76 1017.96 1018.24 1018.52 1018.88 1019.00 1019.16 1019.28 1019.40 1019.52 1019.64 1019.80 1020.08 1020.36 1020.56 1020.84 1021.08 1021.40 1021.60 1021.64 1022.12 1022.40 1022.40 1022.64 1022.72 1022.88 1022.96 1023.08 1023.16 1023.28 1023.40 1023.48 1023.56 1023.64 1023.72 1023.76 1023.84 1023.88 1023.96 1024.04
1014.72 1014.92 1015.16 1015.36 1015.52 1015.56 1015.64 1015.68 1015.68 1015.68 1015.76 1015.92 1016.08 1016.24 1016.36 1016.48 1016.76 1017.16 1017.48 1017.68 1017.64 1017.68 1017.76 1017.92 1018.12 1018.40 1018.64 1018.84 1019.04 1019.20 1019.36 1019.36 1019.48 1019.72 1019.92 1020.16 1020.48 1020.72 1021.00 1021.40 1021.72 1021.80 1021.84 1022.32 1022.48 1022.64 1022.84 1022.92 1023.04 1023.12 1023.28 1023.44 1023.60 1023.80 1023.96 1023.84 1023.84 1023.84 1023.84 1023.92 1024.04 1024.12
1014.84 1014.92 1014.96 1015.12 1015.36 1015.56 1015.68 1015.72 1015.76 1015.80 1015.80 1015.92 1016.00 1016.12 1016.24 1016.36 1016.68 1017.04 1017.44 1017.68 1017.68 1017.76 1017.88 1017.96 1018.04 1018.24 1018.48 1018.68 1018.88 1019.08 1019.28 1019.32 1019.44 1019.68 1019.92 1020.08 1020.32 1020.60 1020.88 1021.16 1021.68 1021.84 1021.96 1022.20 1022.48 1022.60 1022.84 1022.96 1023.04 1023.24 1023.44 1023.60 1023.72 1023.72 1023.88 1023.96 1023.84 1023.88 1023.96 1024.04 1024.12 1024.16
1014.92 1014.96 1015.00 1015.08 1015.24 1015.52 1015.76 1015.88 1015.96 1016.00 1016.08 1016.08 1016.16 1016.24 1016.24 1016.36 1016.60 1016.96 1017.28 1017.52 1017.68 1017.76 1017.88 1018.04 1018.08 1018.16 1018.40 1018.64 1018.84 1019.04 1019.24 1019.32 1019.36 1019.60 1019.88 1020.08 1020.24 1020.52 1020.84 1021.12 1021.40 1021.76 1021.92 1022.08 1022.28 1022.44 1022.64 1022.88 1023.12 1023.32 1023.60 1023.76 1023.68 1023.76 1023.76 1023.88 1023.92 1023.96 1024.04 1024.08 1024.12 1024.20
1014.96 1015.04 1015.16 1015.20 1015.36 1015.68 1015.92 1016.08 1016.24 1016.24 1016.28 1016.24 1016.28 1016.40 1016.36 1016.44 1016.60 1016.92 1017.16 1017.44 1017.88 1018.04 1018.28 1018.20 1018.08 1018.16 1018.32 1018.56 1018.80 1019.00 1019.16 1019.28 1019.44 1019.56 1019.80 1020.08 1020.16 1020.32 1020.64 1021.04 1021.36 1021.56 1021.92 1022.12 1022.24 1022.40 1022.60 1022.92 1023.20 1023.48 1023.80 1023.88 1023.88 1024.04 1023.88 1023.92 1024.04 1024.08 1024.08 1024.12 1024.16 1024.20
1015.20 1015.28 1015.40 1015.60 1015.72 1015.88 1016.16 1016.28 1016.28 1016.24 1016.20 1016.20 1016.28 1016.32 1016.48 1016.56 1016.72 1016.92 1017.08 1017.32 1017.60 1017.80 1017.88 1018.00 1018.08 1018.12 1018.28 1018.44 1018.64 1018.84 1019.04 1019.24 1019.36 1019.52 1019.68 1019.80 1019.76 1020.00 1020.32 1020.76 1021.16 1021.44 1021.64 1022.08 1022.40 1022.44 1022.68 1022.76 1023.20 1023.80 1023.92 1024.00 1024.20 1024.24 1024.08 1024.12 1024.12 1024.16 1024.20 1024.16 1024.16 1024.28
1015.88 1015.96 1016.04 1016.12 1016.12 1016.08 1016.04 1016.12 1016.20 1016.32 1016.36 1016.40 1016.48 1016.52 1016.60 1016.64 1016.80 1017.04 1017.20 1017.36 1017.48 1017.60 1017.84 1017.88 1017.84 1018.04 1018.28 1018.40 1018.60 1018.76 1018.88 1019.04 1019.24 1019.44 1019.60 1019.84 1019.92 1019.88 1020.28 1020.88 1021.16 1021.64 1021.76 1022.20 1022.36 1022.36 1022.60 1022.72 1023.48 1023.60 1024.00 1024.24 1024.32 1024.24 1024.20 1024.28 1024.28 1024.24 1024.24 1024.24 1024.20 1024.32
1016.60 1016.68 1016.68 1016.60 1016.52 1016.48 1016.32 1016.28 1016.40 1016.48 1016.56 1016.64 1016.44 1016.44 1016.56 1016.68 1016.84 1017.16 1017.24 1017.28 1017.20 1017.52 1017.72 1017.84 1017.88 1018.00 1018.20 1018.40 1018.52 1018.64 1018.76 1018.84 1019.00 1019.28 1019.64 1019.96 1020.16 1020.04 1020.12 1020.68 1020.92 1021.24 1021.92 1022.08 1022.16 1022.28 1022.44 1022.40 1023.16 1023.44 1023.60 1024.00 1024.40 1024.52 1024.40 1024.32 1024.36 1024.44 1024.28 1024.32 1024.44 1024.36
1017.08 1017.12 1017.16 1017.08 1017.00 1016.80 1016.60 1016.52 1016.48 1016.60 1016.68 1016.80 1016.88 1016.72 1016.80 1016.88 1017.04 1017.24 1017.44 1017.28 1017.28 1017.44 1017.60 1017.64 1017.68 1017.88 1018.04 1018.32 1018.68 1018.52 1018.52 1018.68 1018.84 1019.08 1019.44 1019.84 1020.04 1020.00 1020.12 1020.60 1020.80 1021.20 1021.56 1022.12 1022.24 1022.52 1022.36 1022.44 1022.48 1023.08 1024.20 1024.08 1024.16 1024.20 1024.76 1024.68 1024.56 1024.44 1024.32 1024.28 1024.32 1024.44
1017.20 1017.24 1017.16 1017.12 1017.12 1017.08 1017.00 1016.96 1016.92 1016.96 1016.92 1017.04 1017.00 1017.08 1017.20 1017.28 1017.16 1017.20 1017.16 1017.20 1017.20 1017.28 1017.48 1017.52 1017.52 1017.64 1017.68 1017.92 1018.64 1018.72 1018.48 1018.52 1018.72 1019.00 1019.28 1019.64 1019.80 1019.72 1019.92 1020.24 1020.48 1020.96 1021.20 1021.40 1022.12 1022.24 1022.44 1022.40 1022.40 1022.20 1022.72 1023.80 1024.40 1024.52 1024.36 1024.32 1024.40 1024.60 1024.40 1024.48 1024.40 1024.40
1016.76 1016.96 1016.92 1016.72 1016.68 1016.80 1016.96 1017.12 1017.28 1017.44 1017.52 1017.44 1017.56 1017.36 1017.44 1017.52 1017.52 1017.40 1017.20 1017.08 1017.12 1017.12 1017.28 1017.40 1017.48 1017.60 1017.64 1017.84 1018.52 1018.52 1018.44 1018.44 1018.64 1018.92 1019.32 1019.64 1019.56 1019.72 1019.96 1020.24 1020.28 1020.44 1020.84 1020.88 1021.16 1021.96 1022.36 1022.36 1022.32 1022.32 1022.36 1022.24 1022.32 1023.04 1023.68 1024.04 1024.20 1025.04 1024.48 1024.36 1024.36 1024.36
1015.64 1015.72 1015.96 1016.00 1016.04 1016.32 1016.68 1016.92 1017.16 1017.32 1017.44 1017.64 1017.68 1017.68 1017.32 1017.16 1017.28 1017.24 1017.08 1017.00 1016.92 1017.08 1017.08 1017.12 1017.28 1017.44 1017.60 1018.04 1018.40 1018.28 1018.52 1018.68 1018.40 1018.44 1018.84 1019.60 1020.08 1019.84 1019.68 1019.80 1020.00 1020.20 1020.32 1020.72 1021.00 1021.68 1021.96 1022.24 1022.40 1022.44 1022.32 1022.40 1022.32 1022.28 1022.28 1023.40 1024.28 1024.52 1025.00 1024.56 1024.36 1024.44
1015.32 1015.40 1015.52 1015.72 1015.88 1016.04 1016.44 1016.80 1017.08 1017.36 1017.60 1017.84 1018.08 1018.36 1018.08 1017.48 1017.16 1017.12 1017.20 1017.12 1017.00 1017.16 1017.20 1016.96 1017.04 1017.16 1017.04 1017.40 1018.00 1018.12 1018.28 1018.68 1018.48 1018.32 1018.56 1018.96 1019.44 1020.04 1019.52 1019.56 1019.64 1019.80 1020.08 1020.28 1020.56 1021.00 1021.60 1021.88 1022.16 1022.32 1022.28 1022.52 1022.52 1022.48 1022.40 1022.48 1022.72 1023.32 1023.76 1024.60 1024.72 1024.52
1015.04 1015.28 1015.36 1015.36 1015.44 1015.92 1016.36 1016.72 1017.12 1017.36 1017.08 1016.60 1016.40 1016.36 1016.52 1016.88 1017.08 1017.12 1017.28 1017.20 1017.04 1017.12 1017.32 1017.20 1017.08 1017.08 1017.08 1017.16 1017.48 1017.76 1018.16 1018.56 1018.52 1018.32 1018.48 1018.76 1018.96 1019.76 1019.48 1019.24 1019.64 1019.96 1020.08 1020.16 1020.24 1020.52 1021.04 1021.60 1021.84 1021.96 1022.28 1022.56 1022.52 1022.60 1022.72 1022.72 1022.84 1023.08 1023.72 1024.36 1024.68 1024.64
1015.08 1015.12 1015.08 1015.00 1015.16 1015.60 1016.20 1016.60 1016.96 1017.04 1016.20 1015.48 1015.72 1016.40 1016.60 1016.64 1016.88 1017.12 1017.00 1016.80 1017.08 1017.16 1017.24 1017.48 1017.28 1017.16 1017.20 1017.28 1017.32 1017.44 1017.84 1018.32 1018.56 1018.52 1018.60 1018.64 1018.76 1019.32 1019.44 1018.96 1019.12 1019.44 1019.72 1020.04 1020.24 1020.48 1020.68 1021.00 1021.28 1021.56 1021.72 1021.96 1022.32 1022.84 1022.88 1023.08 1023.12 1023.28 1023.52 1023.56 1024.08 1024.36
1015.72 1015.32 1015.00 1015.16 1015.28 1015.56 1015.84 1016.28 1016.08 1015.72 1015.20 1015.04 1015.60 1015.96 1016.16 1016.44 1016.56 1016.52 1016.72 1016.92 1016.88 1016.72 1016.68 1016.76 1016.92 1017.08 1017.32 1017.44 1017.36 1017.16 1017.52 1017.84 1018.12 1018.36 1018.60 1018.72 1018.64 1019.00 1019.12 1018.68 1018.84 1019.16 1019.48 1019.76 1020.16 1020.40 1020.64 1020.84 1021.12 1021.44 1021.60 1021.64 1021.88 1022.12 1022.24 1022.60 1022.84 1023.00 1023.16 1023.68 1024.12 1024.44
1015.76 1015.56 1015.44 1015.44 1015.52 1015.68 1015.84 1015.80 1015.68 1015.64 1015.84 1015.80 1015.72 1015.76 1015.80 1016.08 1016.16 1016.16 1016.44 1016.60 1016.56 1016.52 1016.60 1016.60 1016.80 1016.96 1017.20 1017.24 1017.28 1017.20 1017.32 1017.68 1017.88 1018.08 1018.20 1018.20 1018.40 1018.64 1018.48 1018.28 1018.60 1018.96 1019.24 1019.52 1019.88 1020.20 1020.48 1020.84 1021.12 1021.28 1021.36 1021.44 1021.56 1021.72 1021.84 1021.92 1022.20 1022.48 1022.76 1023.08 1023.20 1023.88
1016.36 1016.24 1015.76 1015.36 1015.36 1015.40 1015.60 1015.40 1015.16 1015.28 1015.40 1015.04 1014.92 1014.96 1015.20 1015.60 1015.72 1015.92 1016.00 1016.24 1016.40 1016.40 1016.36 1016.48 1016.52 1016.60 1016.72 1016.92 1017.08 1017.24 1017.36 1017.56 1017.64 1017.84 1017.88 1017.92 1018.24 1018.44 1018.48 1018.84 1018.68 1018.80 1019.04 1019.40 1019.68 1020.00 1020.32 1020.52 1020.68 1020.96 1021.12 1021.24 1021.28 1021.52 1021.56 1021.60 1021.88 1022.24 1022.60 1022.88 1023.20 1023.96
1016.56 1016.24 1015.96 1015.84 1015.52 1015.36 1015.36 1015.28 1014.96 1014.88 1014.80 1014.68 1014.64 1014.52 1014.56 1014.88 1015.08 1015.28 1015.48 1015.72 1015.84 1015.96 1016.04 1015.92 1015.96 1016.08 1015.96 1016.24 1016.64 1016.72 1016.88 1017.08 1017.32 1017.52 1017.52 1017.56 1017.84 1018.20 1018.24 1018.52 1018.84 1018.76 1018.92 1019.08 1019.44 1019.76 1020.00 1020.20 1020.40 1020.48 1020.68 1021.08 1021.24 1021.32 1021.40 1021.56 1021.72 1022.04 1022.40 1022.84 1023.28 1023.44
1016.44 1016.00 1015.92 1015.88 1015.36 1015.04 1014.76 1014.76 1014.68 1014.48 1014.40 1014.32 1014.28 1014.48 1014.64 1014.48 1014.44 1014.68 1014.92 1015.28 1015.52 1015.60 1015.68 1015.72 1016.08 1016.40 1016.24 1016.24 1016.40 1016.68 1016.84 1017.08 1017.20 1017.08 1017.08 1017.40 1017.88 1018.24 1018.28 1018.60 1018.88 1018.88 1018.84 1018.88 1019.20 1019.48 1019.80 1020.04 1020.28 1020.44 1020.64 1020.72 1020.96 1021.20 1021.32 1021.48 1021.60 1021.76 1021.96 1022.08 1022.40 1022.96
1016.84 1016.36 1015.96 1015.76 1015.44 1015.08 1014.64 1014.84 1014.88 1014.72 1014.64 1014.60 1014.60 1014.64 1014.64 1014.48 1014.40 1014.32 1014.44 1014.80 1015.12 1015.28 1015.32 1015.40 1015.48 1015.76 1016.12 1016.36 1016.52 1016.68 1017.00 1017.24 1017.08 1017.08 1017.12 1017.40 1018.00 1018.04 1018.04 1018.24 1018.52 1019.08 1019.20 1018.84 1019.12 1019.44 1019.64 1019.76 1019.88 1020.12 1020.40 1020.56 1020.80 1020.96 1021.12 1021.28 1021.40 1021.52 1021.68 1021.80 1022.04 1022.44
1017.20 1016.68 1016.16 1015.72 1015.36 1015.08 1014.84 1014.72 1014.80 1014.92 1015.00 1015.04 1015.12 1015.12 1014.84 1014.52 1014.40 1014.28 1014.16 1014.44 1014.80 1014.88 1015.04 1015.24 1015.28 1015.44 1015.72 1016.00 1016.16 1016.12 1016.48 1016.76 1016.84 1016.96 1017.24 1017.44 1017.64 1017.64 1017.80 1018.08 1018.32 1018.56 1018.80 1018.72 1018.92 1019.20 1019.36 1019.52 1019.68 1020.12 1020.68 1020.56 1020.52 1020.64 1020.92 1021.12 1021.28 1021.44 1021.60 1021.80 1021.92 1022.04
Wind_Speed
5 6 6 6 5 6 9 13 11 12 14 13 13 14 12 12 12 11 10 10 9 5 5 6 6 6 9 4 5 8 8 8 9 11 11 12 11 12 13 13 11 11 12 14 14 15 14 14 14 14 14 13 11 6 4 5 5 5 4 4 5 5
5 6 6 5 4 5 6 9 5 5 5 8 11 11 9 6 7 4 10 7 5 5 5 5 5 7 5 5 4 7 8 8 9 10 11 12 11 12 12 12 12 11 11 13 14 7 8 12 14 13 13 11 6 5 5 5 5 5 4 4 4 8
6 7 7 6 5 4 6 5 6 5 5 8 7 6 5 6 3 4 5 5 5 5 5 5 5 6 5 7 4 6 8 7 8 9 11 12 11 12 12 13 13 11 11 11 7 6 6 6 7 12 10 6 5 5 5 5 5 4 5 5 5 10
8 7 7 6 5 5 5 4 5 5 5 5 5 4 4 5 5 5 5 4 4 5 5 5 9 11 8 5 5 6 8 7 7 9 10 8 12 12 12 13 13 11 8 5 6 6 6 6 6 5 5 5 5 4 5 4 4 4 5 5 5 10
7 7 7 6 6 5 5 5 4 4 5 4 4 4 5 3 5 5 5 4 5 5 5 5 5 4 4 4 4 4 5 5 5 5 6 5 6 6 5 7 6 6 6 6 7 6 7 7 5 5 5 4 4 4 4 4 4 4 4 3 4 10
7 6 6 5 5 7 8 5 5 5 5 4 4 4 5 4 5 5 5 5 5 5 5 5 5 5 4 5 5 3 4 5 5 4 4 4 5 5 5 5 6 6 5 5 6 6 6 7 6 5 5 4 4 4 4 4 4 3 3 3 5 10
8 7 8 7 6 7 6 6 5 5 6 6 6 5 5 6 5 5 6 6 6 6 5 5 5 5 5 4 5 4 3 4 5 4 3 4 5 5 5 5 6 6 5 6 6 6 6 6 6 6 5 5 4 4 4 4 4 3 2 2 5 9
9 9 8 8 7 7 7 7 7 8 7 9 8 7 6 6 6 6 6 5 5 4 5 6 6 5 4 4 5 4 3 4 5 4 2 4 6 6 5 5 6 6 6 6 6 6 6 6 6 6 6 5 5 4 4 4 3 3 2 3 4 7
9 10 9 9 8 6 8 8 7 7 7 8 5 6 6 6 6 5 6 6 6 6 5 5 6 5 4 5 5 5 4 4 4 4 2 3 5 6 5 5 5 5 5 6 6 6 6 6 6 5 5 5 4 4 4 4 3 3 3 3 3 5
11 10 9 9 8 7 9 9 8 7 7 7 6 6 6 5 5 6 5 6 7 6 6 7 6 5 5 5 5 5 5 5 4 4 4 4 4 6 6 4 5 5 6 6 6 5 6 6 5 5 5 5 4 4 4 4 3 3 2 2 3 4
11 11 9 10 9 9 9 9 7 6 6 7 6 6 6 6 5 5 5 6 5 5 5 5 6 6 5 5 4 5 5 4 4 4 4 5 4 5 5 5 5 6 6 6 5 5 6 6 5 5 5 5 5 4 4 4 3 3 3 3 3 3
9 9 10 10 10 9 9 8 8 7 7 7 7 5 5 6 6 5 5 5 5 5 5 5 5 6 6 6 5 5 5 5 5 4 4 5 5 4 5 4 5 5 5 6 5 5 4 6 5 5 5 6 5 4 4 4 4 3 3 4 4 3
7 8 10 10 8 7 7 7 8 8 7 7 7 7 6 5 5 5 5 7 7 6 5 6 5 6 6 6 5 5 4 4 4 4 4 5 6 6 6 5 5 4 5 6 6 5 5 4 5 5 5 5 5 5 4 4 4 4 4 4 4 4
7 8 7 3 4 5 6 7 7 7 7 7 6 6 6 5 5 5 6 7 7 7 6 6 6 5 5 5 5 5 5 5 4 4 4 4 5 5 6 6 6 5 5 5 6 6 6 6 4 5 5 5 4 4 4 4 4 4 4 3 3 4
6 3 4 4 5 6 7 6 7 6 6 7 7 6 6 6 6 6 5 5 6 6 6 6 5 6 5 5 5 5 5 5 5 5 5 4 5 4 5 6 6 6 5 5 5 5 6 6 7 6 5 5 5 4 4 4 3 4 4 3 3 4
6 5 4 4 4 6 7 7 6 6 5 6 6 7 6 7 6 5 5 5 5 6 6 6 6 6 5 5 5 5 5 5 6 5 5 5 5 5 5 5 4 7 6 5 6 5 4 6 6 6 5 4 4 5 4 4 4 4 3 3 3 3
7 8 6 6 6 6 5 6 6 7 7 7 7 7 7 7 7 7 6 5 5 5 6 6 7 7 6 6 5 5 5 6 6 6 6 6 5 5 6 5 4 3 6 6 6 8 5 5 6 6 5 4 3 4 3 3 4 3 3 4 3 3
4 6 7 8 8 6 5 5 5 5 7 7 7 6 6 7 7 6 5 5 4 4 4 6 7 7 6 5 5 4 4 6 6 6 5 6 6 5 5 6 6 4 4 6 6 8 8 6 5 5 4 4 5 5 4 2 4 4 3 4 3 3
5 6 6 7 7 6 5 3 3 4 5 5 5 5 5 6 6 6 6 6 5 4 4 5 6 6 6 5 5 4 5 5 5 6 6 6 6 6 5 5 7 5 4 4 6 7 8 6 6 5 4 4 4 3 4 3 3 4 3 3 3 3
5 4 3 5 6 6 4 5 5 4 5 5 5 5 5 5 4 6 6 5 1 1 1 4 5 5 6 5 5 5 5 5 5 6 7 7 6 7 7 7 7 7 7 6 6 6 8 7 6 7 5 5 4 1 4 4 3 3 3 3 3 3
4 3 5 4 5 6 6 5 4 7 7 7 6 6 6 5 4 4 5 6 6 5 6 5 5 6 6 5 6 5 6 6 6 6 7 8 8 8 7 6 7 5 7 8 7 7 6 7 8 5 4 5 5 3 4 3 4 3 3 3 2 3
2 2 1 1 2 4 5 6 5 5 5 5 6 6 6 5 5 4 5 6 7 7 6 5 6 5 3 5 6 6 7 7 7 6 5 3 5 8 8 7 7 6 4 7 7 8 7 8 3 5 6 4 3 3 4 4 3 3 2 2 3 3
5 4 4 2 2 2 2 3 4 2 4 2 1 1 2 2 4 4 6 7 8 6 7 6 5 5 7 6 7 7 7 7 7 6 6 6 6 7 9 10 10 8 7 4 5 6 9 4 6 5 5 4 3 3 2 3 2 2 3 2 3 4
6 5 5 4 4 4 2 2 1 0 1 1 0 1 1 2 3 4 4 8 7 7 7 7 7 7 6 7 7 8 7 7 7 7 8 8 8 7 9 8 8 9 9 9 6 6 6 4 6 9 6 2 3 2 3 3 3 1 2 2 3 3
6 7 4 4 3 3 3 3 2 2 2 2 2 3 3 3 5 5 6 7 7 6 7 7 8 8 8 8 7 5 6 7 7 7 7 7 8 9 10 9 10 10 10 10 9 5 6 4 7 3 5 5 3 2 2 3 4 1 2 2 2 3
2 4 3 1 1 1 2 2 1 1 2 2 3 2 6 5 4 6 7 4 4 7 7 7 6 7 7 7 8 8 6 7 7 5 2 3 6 7 9 9 11 11 10 9 11 9 7 4 6 3 3 1 4 5 6 5 5 4 1 1 1 2
2 5 4 3 4 4 3 3 3 3 3 3 3 3 2 1 4 4 5 7 7 5 6 8 8 6 5 5 5 5 6 6 7 8 8 6 4 8 10 10 9 9 10 8 8 10 11 8 5 4 3 1 3 1 7 8 6 4 5 2 0 2
3 2 4 3 4 5 5 3 0 3 5 5 4 4 6 4 2 3 4 7 6 5 6 6 6 6 8 9 7 6 6 6 7 8 8 8 9 8 8 7 10 10 9 10 11 11 10 9 10 7 4 3 1 1 5 4 5 5 5 8 4 1
2 4 6 7 6 5 4 3 4 6 3 4 6 8 7 3 3 3 3 3 7 5 5 5 5 6 6 7 8 7 6 6 7 7 7 7 7 6 10 11 9 8 9 9 9 9 10 10 8 7 6 2 3 3 4 2 6 3 4 7 2 5
1 2 5 7 6 6 5 4 7 5 11 12 7 2 2 5 4 3 5 5 4 6 6 4 5 5 3 5 8 8 8 7 6 4 5 8 8 8 9 10 11 11 10 10 7 8 10 9 9 6 7 6 5 4 5 3 4 5 2 1 5 9
2 1 2 3 4 6 7 7 9 12 13 10 4 6 6 5 4 7 7 6 7 6 7 8 6 6 5 5 6 8 8 9 8 8 8 7 9 10 9 10 10 10 10 11 8 8 7 7 7 7 7 7 7 9 8 8 8 8 6 5 3 5
3 3 4 4 3 2 3 7 8 10 8 5 6 7 8 6 6 7 6 6 6 7 8 8 6 5 7 7 6 6 7 6 6 7 8 7 7 9 9 9 9 9 9 9 8 8 7 8 9 7 7 6 6 7 6 6 7 7 8 7 7 7
6 6 6 6 5 5 6 7 10 10 11 10 9 10 9 8 7 7 6 7 6 6 6 6 8 8 8 9 7 7 8 8 8 7 7 7 7 8 5 4 7 10 9 10 9 9 8 9 10 9 8 6 6 6 7 5 6 7 4 5 6 7
7 6 5 4 6 4 8 10 9 8 9 9 9 9 9 9 9 8 7 8 8 9 8 9 9 9 9 11 9 8 8 9 8 8 8 7 8 7 9 10 7 8 10 9 8 10 9 9 9 9 7 7 6 7 6 5 6 6 7 7 6 8
10 9 4 5 8 7 7 8 9 10 10 9 10 8 7 8 8 8 8 8 7 6 7 6 4 3 4 8 8 7 7 7 8 8 8 7 5 5 7 5 4 6 8 8 10 9 8 9 8 9 7 7 7 6 6 5 6 7 7 8 9 8
12 11 9 5 7 8 9 4 6 8 8 7 6 5 5 6 7 8 8 9 8 7 7 7 6 6 5 6 6 6 5 7 5 5 6 7 7 8 8 8 8 7 7 6 8 9 7 8 8 9 8 6 6 6 6 6 6 7 7 6 7 8
11 11 12 9 7 7 8 9 6 4 6 6 5 6 6 7 8 8 8 8 8 9 8 6 6 6 7 7 7 9 9 8 6 5 6 8 9 8 9 9 8 9 9 7 8 9 8 8 7 8 7 8 7 6 6 6 5 5 6 5 6 8
Wind_Direction
113 113 116 120 129 138 149 145 147 151 152 149 148 147 141 145 149 150 144 137 128 118 118 124 123 123 125 114 118 117 110 111 109 111 104 103 101 96 94 93 89 93 102 108 109 108 106 107 108 108 105 98 89 78 81 78 78 76 70 73 88 101
117 117 112 114 136 138 146 139 130 145 147 149 151 149 143 143 144 131 145 129 115 117 110 117 123 120 110 126 126 116 108 105 109 106 105 101 98 94 93 90 93 99 104 116 112 102 101 105 107 104 102 96 85 85 72 76 85 80 66 62 88 94
120 124 119 122 130 138 131 129 133 135 145 149 150 139 134 133 98 111 105 115 110 106 111 114 118 129 117 124 123 114 108 106 105 108 107 103 98 94 90 87 91 98 101 98 97 101 95 92 101 104 96 87 83 82 86 81 77 78 85 78 82 107
134 140 137 134 127 129 128 126 131 128 128 134 123 137 121 131 117 108 109 107 114 114 116 127 149 136 129 116 123 116 112 106 103 109 102 101 100 92 83 79 85 91 93 96 106 100 95 87 90 91 93 91 84 86 83 85 76 74 81 90 100 112
144 141 136 137 139 138 129 124 110 115 120 119 105 99 116 95 122 115 117 122 125 122 119 110 103 92 88 105 92 81 73 62 56 56 69 75 74 76 74 79 73 78 95 112 111 109 111 107 104 103 100 93 90 84 80 77 81 77 78 106 130 108
141 143 143 138 139 142 140 144 140 142 132 126 125 133 123 145 123 128 130 133 131 129 123 116 114 116 104 112 108 94 89 88 74 59 63 78 88 91 85 84 85 90 94 103 110 115 118 124 121 109 103 97 91 84 91 82 80 81 89 78 103 108
152 151 146 145 144 147 149 151 144 150 145 145 152 145 151 141 136 135 138 147 149 149 142 133 135 138 138 126 119 106 105 100 96 83 76 100 95 98 103 100 91 96 107 110 106 103 110 111 121 121 108 100 97 93 88 94 88 92 61 90 118 122
160 157 155 158 146 156 153 156 161 166 164 168 162 165 164 151 149 156 156 154 151 145 149 147 150 147 146 133 125 117 124 115 108 99 83 114 110 108 112 101 101 106 109 112 114 109 108 110 116 118 112 103 100 96 93 93 93 82 53 70 95 120
167 165 163 166 159 159 158 164 167 167 167 174 166 165 165 146 156 154 152 148 151 156 161 150 153 150 146 147 128 131 138 130 122 124 120 101 116 118 119 116 107 108 113 117 117 118 118 113 114 117 115 112 109 108 103 93 91 78 58 52 103 121
176 172 167 166 169 165 164 173 174 171 169 163 166 167 165 156 161 156 158 160 167 167 166 166 160 148 156 151 143 138 140 144 149 137 132 126 120 127 131 122 109 108 112 119 122 133 127 123 118 119 118 119 120 119 109 107 95 82 57 60 43 79
179 173 169 173 172 175 171 175 172 166 159 162 163 164 171 166 171 165 164 162 164 167 159 163 164 151 160 151 149 148 149 147 153 162 147 132 123 132 138 136 133 129 127 125 123 132 132 126 123 121 127 128 130 122 104 98 87 81 83 59 44 29
182 177 175 177 176 176 176 169 166 170 166 154 151 162 172 165 176 176 164 158 160 167 164 158 165 155 160 157 159 159 156 164 174 162 159 134 126 125 124 118 107 109 112 115 118 107 116 129 130 131 132 131 126 123 109 104 97 92 79 60 66 46
185 189 187 182 174 170 165 169 170 175 168 155 158 164 173 170 177 174 163 168 171 171 165 158 166 171 162 163 162 158 159 175 175 158 156 138 127 128 121 115 107 110 103 108 112 114 106 108 132 139 135 132 130 126 111 104 105 95 77 80 73 79
194 195 190 151 152 159 168 172 174 174 168 158 158 159 166 174 183 180 182 181 171 172 166 162 161 168 160 158 159 165 167 172 170 157 143 141 136 135 128 125 133 127 131 123 127 130 129 129 129 133 134 134 131 134 120 106 105 97 89 90 84 85
194 169 172 154 158 164 180 180 177 173 170 162 157 164 169 170 184 188 191 197 178 169 163 158 160 157 158 161 167 171 175 173 159 151 146 153 142 132 127 131 139 122 109 106 118 126 131 141 143 142 140 139 140 136 113 112 108 110 102 98 94 86
166 147 147 147 151 172 188 185 179 175 158 165 165 172 174 175 176 176 192 202 191 174 165 160 154 154 164 175 174 180 169 159 161 150 148 144 136 140 133 129 137 134 123 128 129 123 131 141 140 138 135 135 141 139 120 115 126 117 101 97 92 90
168 154 150 145 169 189 189 186 183 177 169 169 175 179 178 173 170 179 188 197 198 185 169 162 156 164 170 179 181 179 157 159 158 153 152 150 150 150 144 139 138 148 139 146 142 139 139 141 137 131 125 123 108 76 61 131 133 122 106 93 93 90
148 164 164 163 176 183 192 190 189 183 176 177 182 179 175 169 171 169 168 201 205 191 178 169 164 164 167 173 178 175 148 147 149 150 150 154 154 148 147 145 139 128 140 137 144 147 147 138 128 120 105 100 107 127 154 164 137 128 109 119 105 95
187 180 169 160 170 172 177 185 167 173 181 187 187 182 175 176 172 160 172 193 203 198 184 178 171 164 160 164 162 157 151 156 149 149 145 148 139 143 141 141 146 128 117 127 143 146 143 136 122 111 103 107 115 140 124 142 129 128 127 130 135 127
202 190 177 164 158 163 168 183 178 177 192 198 196 192 187 190 160 173 178 151 88 345 299 216 178 168 164 163 160 165 161 155 159 153 156 156 156 161 157 146 146 142 128 118 125 133 134 125 107 100 97 77 71 70 130 119 121 124 130 139 142 142
212 195 189 182 170 164 175 186 204 200 199 192 195 190 190 187 179 167 163 169 178 193 203 198 186 174 176 170 167 164 160 165 166 167 173 182 171 159 154 148 137 130 135 121 135 140 134 130 122 101 83 93 86 71 66 122 132 130 140 153 148 146
337 299 277 260 200 186 196 202 205 208 204 198 199 200 193 186 187 162 154 172 194 203 208 208 184 176 181 178 166 172 173 171 168 170 166 160 174 146 135 135 137 110 119 145 147 149 145 136 125 146 142 134 107 88 101 97 106 137 128 158 161 149
346 337 334 319 275 265 232 232 219 233 206 216 241 216 196 178 170 164 163 170 196 204 198 195 196 172 179 200 185 175 181 171 169 154 149 168 179 161 149 158 157 144 141 139 133 150 162 186 138 136 123 119 148 138 97 91 85 96 126 141 142 142
348 335 328 320 311 322 314 314 306 32 164 130 124 124 139 132 163 152 160 188 201 201 200 202 195 187 182 187 198 189 176 172 171 165 164 170 186 173 153 162 154 147 153 146 155 164 182 198 151 141 155 191 144 115 136 185 162 103 130 139 120 131
350 340 330 335 329 333 328 346 359 31 60 61 55 123 164 198 177 170 185 197 209 196 200 205 197 191 180 182 196 203 177 172 165 171 170 176 184 178 168 168 161 155 169 156 159 157 191 205 185 212 141 128 92 202 207 143 133 105 141 166 186 151
34 337 311 296 241 211 274 275 275 198 192 188 219 185 194 197 176 177 205 198 209 207 202 204 204 196 187 164 163 182 179 161 154 147 176 247 189 167 170 169 171 166 167 169 156 161 171 223 207 218 285 52 158 172 167 157 154 196 44 183 209 158
189 234 248 222 188 183 225 232 222 237 229 200 225 277 350 283 200 203 190 208 215 199 200 194 191 171 133 157 183 157 164 195 172 170 167 180 206 196 176 175 169 170 167 156 156 163 175 179 184 263 246 59 50 42 140 144 182 118 184 199 56 144
263 273 248 216 186 193 210 213 284 17 13 19 12 11 340 306 283 205 198 210 217 192 235 216 185 168 162 156 157 164 168 197 189 179 176 181 177 208 182 172 174 174 158 164 170 170 174 170 180 198 190 196 117 110 166 83 134 163 146 168 192 47
299 260 230 208 191 188 204 160 89 62 306 213 195 183 199 208 229 239 246 244 214 202 228 236 207 177 188 162 156 168 169 190 198 181 180 179 178 193 194 169 170 168 171 175 177 172 163 180 188 184 159 150 111 124 141 67 130 105 149 162 152 186
179 275 262 228 200 175 161 123 105 155 221 225 201 103 131 208 207 143 225 196 159 197 193 237 221 180 182 175 164 169 173 191 210 175 198 197 178 187 202 177 174 177 175 173 177 170 177 176 187 175 177 142 132 122 120 95 154 147 68 127 172 190
331 310 3 295 224 190 149 139 177 201 222 229 178 178 200 197 176 202 204 196 194 196 189 203 200 181 187 199 191 168 181 196 178 184 207 210 186 188 199 182 177 177 176 175 174 174 177 174 171 171 167 168 163 166 169 175 181 180 159 160 125 177
316 313 336 293 294 26 53 176 205 215 230 238 198 203 212 204 204 220 207 199 198 195 199 195 190 187 180 197 199 183 186 185 182 183 198 202 201 194 195 175 171 177 179 177 170 171 169 168 175 173 176 175 175 179 180 176 172 173 176 173 169 167
316 283 259 268 248 198 177 196 207 209 219 222 208 201 206 200 200 218 217 212 196 207 196 186 190 189 187 196 196 190 182 185 193 198 193 190 206 209 147 161 183 177 175 174 178 176 176 178 176 177 183 186 174 181 194 183 153 167 142 134 145 146
303 293 301 301 262 213 196 220 220 206 212 220 223 214 206 198 199 202 206 213 205 200 207 205 199 195 191 181 191 196 190 188 188 188 193 203 199 190 162 182 191 182 181 181 170 178 184 179 181 185 171 165 184 190 198 165 165 150 152 143 154 161
328 317 307 270 270 249 233 208 212 217 215 213 219 210 206 205 200 200 204 212 208 204 207 211 190 236 214 183 182 186 196 184 194 194 188 194 196 144 147 147 200 207 195 174 177 178 183 174 178 181 180 179 181 189 184 176 167 176 164 173 163 160
350 334 316 270 256 261 264 228 235 242 242 242 239 222 211 208 216 212 208 206 208 204 206 202 187 164 160 169 157 162 192 219 206 192 189 177 184 179 165 172 176 194 214 175 169 177 180 180 185 181 182 178 167 193 180 175 185 176 180 172 162 162
350 344 342 320 283 271 275 295 299 308 300 292 284 260 241 218 210 215 211 204 201 205 197 183 189 169 171 163 166 173 193 199 191 183 187 181 183 180 167 175 184 181 190 177 171 174 172 181 170 154 186 194 192 190 186 174 178 180 172 160 170 173